[[{"header":{"parameterUnit":"m.s-1","parameterCategory":1,"la1":30.2991,"la2":30.254,"lo1":-89.0895,"lo2":-89.0444,"dy":0.0017,"dx":0.0017,"nx":28,"ny":28,"refTime":"2024-04-21T03:00:00:Z","depth":0,"parameterNumber":2,"parameterNumberName":"U-component_of_WINDS"},"data":[0,0,0,0,0,0,0,0,0,0,0,0,0,0,0,0,0,0,0,0,0,0,0,0,0,0,0,0,0,0,0,0,0,0,0,0,0,0,0,0,0,0,0,0,0,0,0,0,0,0,0,0,0,0,0,0,0,0,-0.5721,-0.5721,0,-0.5687,-0.5687,-0.5686,-0.5662,-0.5661,-0.5661,-0.5661,-0.5625,-0.5624,-0.5623,0,0,0,0,0,0,0,0,0,0,0,0,0,-0.5764,-0.5763,-0.5721,-0.5721,-0.5721,-0.5687,-0.5687,-0.5686,-0.5662,-0.5661,-0.5661,-0.5661,-0.5625,-0.5624,-0.5623,0,0,0,0,0,0,0,0,0,0,0,0,0,-0.5739,-0.5763,-0.5722,-0.5704,-0.5702,-0.5687,-0.5687,-0.5686,-0.5662,-0.5661,-0.5661,-0.5661,-0.5625,-0.5624,-0.5623,-0.5622,0,0,-0.5619,-0.5619,0,0,0,0,0,0,0,0,-0.574,-0.5737,-0.5707,-0.5705,-0.5703,-0.5678,-0.5688,-0.5665,-0.5662,-0.5677,-0.5661,-0.5661,-0.5643,-0.564,-0.5634,-0.562,-0.5619,-0.5619,-0.5619,-0.5618,-0.5618,0,0,0,0,0,0,0,-0.5742,-0.5739,-0.5708,-0.5707,-0.5704,-0.5698,-0.5694,-0.5684,-0.5662,-0.5676,-0.5674,-0.567,-0.5642,-0.5636,-0.5633,-0.5618,-0.5619,-0.5618,-0.5618,-0.5617,-0.56,-0.56,0,0,0,0,0,0,-0.5747,-0.574,-0.5709,-0.5707,-0.5722,-0.5697,-0.5693,-0.5687,-0.5662,-0.5658,-0.5671,-0.5669,-0.5638,-0.5635,-0.5632,-0.5628,-0.5618,-0.5617,-0.5616,-0.56,-0.56,-0.56,0,0,0,0,0,0,-0.5748,-0.5744,-0.571,-0.5723,-0.5718,-0.5697,-0.569,-0.5686,-0.568,-0.5658,-0.5654,-0.5668,-0.5637,-0.5634,-0.5624,-0.5627,-0.5617,-0.5615,-0.5599,-0.56,-0.56,-0.5621,0,0,0,0,0,0,-0.5749,-0.5745,-0.5745,-0.5723,-0.5718,-0.5704,-0.569,-0.5686,-0.5678,-0.5676,-0.5655,-0.5651,-0.5637,-0.5626,-0.5623,-0.5625,-0.5615,-0.5599,-0.5599,-0.56,-0.562,-0.5622,-0.5624,0,0,0,0,0,-0.5751,-0.5752,-0.5745,-0.5741,-0.5717,-0.5704,-0.5701,-0.5685,-0.5679,-0.5678,-0.5664,-0.5652,-0.5627,-0.5625,-0.5622,-0.5623,-0.5599,-0.5599,-0.56,-0.5619,-0.5622,-0.5624,0,0,0,0,0,0,-0.5774,-0.5749,-0.5741,-0.5735,-0.5722,-0.57,-0.5699,-0.5688,-0.5676,-0.5675,-0.5654,-0.565,-0.5642,-0.5632,-0.5631,-0.562,-0.5611,-0.5611,-0.5627,-0.563,-0.5631,-0.5634,-0.5614,0,0,0,0,0,-0.5779,-0.5771,-0.5749,-0.5746,-0.574,-0.5721,-0.5714,-0.5703,-0.5688,-0.5682,-0.5668,-0.5653,-0.5642,-0.5635,-0.5624,-0.5618,-0.5613,-0.5617,-0.5619,-0.5621,-0.5621,-0.5616,-0.5618,-0.5602,-0.5602,-0.5602,0,0,-0.5788,-0.5773,-0.5769,-0.575,-0.5739,-0.573,-0.5716,-0.5708,-0.5701,-0.5681,-0.5671,-0.566,-0.5643,-0.5635,-0.5631,-0.5626,-0.5624,-0.5622,-0.5623,-0.5622,-0.5617,-0.5619,-0.562,-0.5602,-0.5602,-0.5602,0,0,-0.58,-0.5789,-0.5785,-0.5773,-0.5756,-0.5743,-0.5742,-0.5721,-0.5713,-0.5703,-0.5687,-0.5679,-0.566,-0.5648,-0.564,-0.5647,-0.5635,-0.5643,-0.5653,-0.5649,-0.565,-0.5651,-0.5653,-0.5654,-0.5643,-0.5644,-0.5644,0,-0.5814,-0.5801,-0.5784,-0.5777,-0.5768,-0.575,-0.5745,-0.5735,-0.5714,-0.5709,-0.5703,-0.5679,-0.5666,-0.5655,-0.5657,-0.5651,-0.5648,-0.5646,-0.5652,-0.5652,-0.5653,-0.5655,-0.5655,-0.5645,-0.5645,-0.5644,-0.5644,0,-0.5819,-0.581,-0.5809,-0.579,-0.5781,-0.5775,-0.5756,-0.575,-0.5738,-0.5726,-0.5715,-0.5699,-0.5683,-0.568,-0.5669,-0.5667,-0.5664,-0.5656,-0.5646,-0.5656,-0.5657,-0.5658,-0.5646,-0.5646,-0.5645,-0.5645,0,0,-0.5846,-0.5817,-0.5816,-0.5807,-0.5786,-0.5779,-0.5771,-0.5756,-0.5751,-0.5737,-0.573,-0.5714,-0.5705,-0.5696,-0.5683,-0.568,-0.5685,-0.5671,-0.567,-0.5674,-0.5681,-0.5687,-0.5688,-0.5677,-0.5677,-0.5677,-0.5682,0,-0.5855,-0.5841,-0.5825,-0.5817,-0.5808,-0.5789,-0.5783,-0.5769,-0.5756,-0.5746,-0.5732,-0.5721,-0.5711,-0.5705,-0.5701,-0.5685,-0.5686,-0.5685,-0.567,-0.5669,-0.5674,-0.5689,-0.5696,-0.5701,-0.5682,-0.5682,-0.5682,0,-0.5864,-0.5851,-0.5842,-0.5821,-0.5817,-0.5811,-0.5796,-0.5787,-0.577,-0.5761,-0.575,-0.5736,-0.5726,-0.5718,-0.5704,-0.5703,-0.5696,-0.5687,-0.5687,-0.5685,-0.5677,-0.5687,-0.5703,-0.5703,-0.5683,-0.5683,-0.5683,0,-0.5884,-0.5864,-0.5856,-0.5849,-0.5824,-0.5821,-0.581,-0.5793,-0.5785,-0.5771,-0.5765,-0.575,-0.5742,-0.573,-0.5712,-0.5708,-0.57,-0.569,-0.5692,-0.5692,-0.5691,-0.5691,-0.5705,-0.5686,-0.5686,-0.5686,-0.5686,0,-0.5896,-0.5891,-0.5865,-0.586,-0.5853,-0.5834,-0.5828,-0.5816,-0.58,-0.5792,-0.5775,-0.5767,-0.5744,-0.5734,-0.572,-0.5709,-0.5706,-0.5698,-0.5694,-0.5699,-0.57,-0.5694,-0.5693,-0.5687,-0.5687,-0.5687,-0.5686,0,-0.5917,-0.59,-0.5889,-0.5867,-0.5861,-0.5857,-0.5837,-0.5831,-0.5817,-0.5807,-0.5803,-0.5781,-0.5768,-0.5749,-0.5729,-0.572,-0.5712,-0.5706,-0.5717,-0.5715,-0.5717,-0.5717,-0.5728,-0.5728,-0.571,-0.571,-0.571,0,-0.5926,-0.5922,-0.5898,-0.5892,-0.5882,-0.5871,-0.5862,-0.5843,-0.5834,-0.5814,-0.581,-0.5796,-0.5783,-0.5762,-0.5744,-0.5728,-0.5722,-0.5727,-0.5719,-0.5724,-0.5721,-0.5722,-0.5721,-0.5728,-0.5729,-0.5729,-0.5729,0,-0.5943,-0.5934,-0.5923,-0.5908,-0.5898,-0.5885,-0.5872,-0.5867,-0.5844,-0.5836,-0.5822,-0.5812,-0.5792,-0.5777,-0.5759,-0.5747,-0.5734,-0.5732,-0.5731,-0.5736,-0.5743,-0.5739,-0.5722,-0.5731,-0.5731,-0.5731,-0.5731,-0.5731,-0.5958,-0.5953,-0.5936,-0.5923,-0.5911,-0.5898,-0.5891,-0.5876,-0.5864,-0.5847,-0.5836,-0.5822,-0.5804,-0.5779,-0.5767,-0.5756,-0.5751,-0.575,-0.575,-0.575,-0.5751,-0.5745,-0.5752,-0.5752,-0.5752,-0.5752,-0.5752,0,-0.5974,-0.5961,-0.595,-0.5931,-0.5921,-0.591,-0.5894,-0.5886,-0.5875,-0.5859,-0.5847,-0.583,-0.5815,-0.5796,-0.5779,-0.5774,-0.5767,-0.577,-0.577,-0.5767,-0.5757,-0.5759,-0.5775,-0.5775,-0.5775,-0.5775,-0.5775,-0.5775,-0.5981,-0.5971,-0.596,-0.5944,-0.5932,-0.5919,-0.5911,-0.5898,-0.5886,-0.5868,-0.5856,-0.5843,-0.5826,-0.5808,-0.5793,-0.5788,-0.5782,-0.5787,-0.578,-0.577,-0.5768,-0.5766,-0.5768,-0.5786,-0.5786,-0.5791,-0.5791,-0.5791]},{"header":{"parameterUnit":"m.s-1","parameterCategory":1,"la1":30.2991,"la2":30.254,"lo1":-89.0895,"lo2":-89.0444,"dy":0.0017,"dx":0.0017,"nx":28,"ny":28,"refTime":"2024-04-21T03:00:00:Z","depth":0,"parameterNumber":3,"parameterNumberName":"V-component_of_WINDS"},"data":[0,0,0,0,0,0,0,0,0,0,0,0,0,0,0,0,0,0,0,0,0,0,0,0,0,0,0,0,0,0,0,0,0,0,0,0,0,0,0,0,0,0,0,0,0,0,0,0,0,0,0,0,0,0,0,0,0,0,-3.9336,-3.9337,0,-3.938,-3.938,-3.9381,-3.9386,-3.9385,-3.9385,-3.9384,-3.9424,-3.9426,-3.9427,0,0,0,0,0,0,0,0,0,0,0,0,0,-3.9255,-3.9257,-3.9336,-3.9337,-3.9337,-3.938,-3.938,-3.9381,-3.9386,-3.9385,-3.9385,-3.9384,-3.9424,-3.9426,-3.9427,0,0,0,0,0,0,0,0,0,0,0,0,0,-3.9293,-3.9257,-3.9336,-3.9345,-3.9346,-3.9379,-3.938,-3.9381,-3.9386,-3.9385,-3.9385,-3.9384,-3.9423,-3.9426,-3.9428,-3.9454,0,0,-3.9434,-3.9435,0,0,0,0,0,0,0,0,-3.9291,-3.9296,-3.9343,-3.9345,-3.9346,-3.9377,-3.9366,-3.9405,-3.9386,-3.9371,-3.9384,-3.9384,-3.9409,-3.9412,-3.9421,-3.9455,-3.9457,-3.9435,-3.9436,-3.9437,-3.9437,0,0,0,0,0,0,0,-3.9289,-3.9295,-3.9353,-3.9344,-3.9346,-3.9346,-3.9351,-3.9374,-3.9392,-3.9372,-3.9372,-3.9378,-3.9409,-3.9419,-3.9422,-3.9458,-3.9434,-3.9436,-3.9438,-3.9439,-3.9517,-3.9518,0,0,0,0,0,0,-3.9285,-3.9292,-3.9352,-3.9355,-3.9317,-3.9348,-3.9353,-3.9367,-3.9392,-3.9396,-3.9378,-3.9378,-3.9416,-3.942,-3.9424,-3.9457,-3.9437,-3.9439,-3.944,-3.9516,-3.9517,-3.9518,0,0,0,0,0,0,-3.9283,-3.929,-3.935,-3.9324,-3.9331,-3.935,-3.9366,-3.9369,-3.9379,-3.9397,-3.94,-3.9385,-3.9416,-3.9421,-3.9447,-3.9459,-3.944,-3.9442,-3.9515,-3.9516,-3.9518,-3.9523,0,0,0,0,0,0,-3.9281,-3.9289,-3.93,-3.9324,-3.9333,-3.9373,-3.9367,-3.937,-3.9383,-3.9383,-3.9404,-3.9407,-3.9416,-3.9444,-3.9449,-3.9461,-3.9443,-3.9514,-3.9516,-3.9517,-3.9522,-3.9524,-3.9527,0,0,0,0,0,-3.9278,-3.9298,-3.9301,-3.9308,-3.9347,-3.9374,-3.9379,-3.9389,-3.9384,-3.9394,-3.9407,-3.9407,-3.9456,-3.9446,-3.9452,-3.9465,-3.9514,-3.9515,-3.9517,-3.9521,-3.9524,-3.9526,0,0,0,0,0,0,-3.9273,-3.9302,-3.9304,-3.9334,-3.9352,-3.9375,-3.9388,-3.9391,-3.941,-3.9409,-3.942,-3.9424,-3.945,-3.946,-3.9448,-3.9493,-3.9484,-3.9487,-3.9485,-3.9488,-3.949,-3.9488,-3.9445,0,0,0,0,0,-3.9276,-3.9297,-3.932,-3.9344,-3.9353,-3.9369,-3.9381,-3.9388,-3.9406,-3.9414,-3.9428,-3.9444,-3.9464,-3.9477,-3.9495,-3.9524,-3.9529,-3.9536,-3.9538,-3.954,-3.9542,-3.9559,-3.9563,-3.9524,-3.9524,-3.9524,0,0,-3.9281,-3.9299,-3.9312,-3.9343,-3.9358,-3.9379,-3.9375,-3.9397,-3.9413,-3.9416,-3.9443,-3.9454,-3.9473,-3.9501,-3.9514,-3.951,-3.9554,-3.9542,-3.9543,-3.9545,-3.9561,-3.9565,-3.9568,-3.9525,-3.9525,-3.9524,0,0,-3.9302,-3.9317,-3.934,-3.9355,-3.9379,-3.939,-3.9395,-3.9418,-3.9427,-3.9453,-3.9457,-3.9475,-3.9508,-3.9523,-3.9534,-3.9563,-3.9564,-3.9568,-3.958,-3.9596,-3.96,-3.9602,-3.9614,-3.9617,-3.9571,-3.9571,-3.9571,0,-3.9305,-3.9338,-3.935,-3.9373,-3.9387,-3.9394,-3.9416,-3.943,-3.9458,-3.9467,-3.9463,-3.9506,-3.9519,-3.9552,-3.9559,-3.9567,-3.9574,-3.9566,-3.9598,-3.9601,-3.9604,-3.9615,-3.9619,-3.9571,-3.9571,-3.9571,-3.9571,0,-3.9342,-3.9364,-3.9379,-3.9409,-3.9424,-3.9446,-3.9462,-3.9476,-3.9482,-3.9493,-3.9521,-3.9537,-3.9561,-3.9569,-3.9573,-3.9602,-3.9599,-3.9596,-3.9588,-3.9608,-3.9619,-3.9623,-3.9572,-3.9572,-3.9572,-3.9572,0,0,-3.9359,-3.9397,-3.9402,-3.9416,-3.9443,-3.9461,-3.9484,-3.9508,-3.9521,-3.954,-3.9559,-3.9588,-3.9587,-3.96,-3.9606,-3.9621,-3.9644,-3.9617,-3.9617,-3.9622,-3.9678,-3.968,-3.9685,-3.9645,-3.9646,-3.9646,-3.9677,0,-3.9384,-3.9427,-3.944,-3.9475,-3.9497,-3.9504,-3.9524,-3.9543,-3.9554,-3.9574,-3.9585,-3.9607,-3.9602,-3.9611,-3.9625,-3.9638,-3.9655,-3.9636,-3.9663,-3.9664,-3.9659,-3.969,-3.9692,-3.972,-3.968,-3.9681,-3.9682,0,-3.9418,-3.9441,-3.9479,-3.9506,-3.9515,-3.9533,-3.9558,-3.9576,-3.9597,-3.9605,-3.9621,-3.9626,-3.965,-3.9641,-3.9674,-3.9661,-3.9672,-3.968,-3.9682,-3.9685,-3.9674,-3.9695,-3.9729,-3.9733,-3.9688,-3.9687,-3.9687,0,-3.9429,-3.9468,-3.9497,-3.9509,-3.954,-3.9553,-3.9566,-3.9586,-3.9601,-3.9622,-3.9632,-3.9654,-3.9667,-3.9684,-3.9696,-3.9688,-3.9728,-3.9719,-3.9735,-3.9735,-3.9743,-3.9743,-3.978,-3.975,-3.9749,-3.9749,-3.9749,0,-3.9455,-3.9479,-3.9503,-3.9521,-3.9547,-3.9562,-3.9587,-3.96,-3.9619,-3.9639,-3.9646,-3.9664,-3.9678,-3.9698,-3.9707,-3.9734,-3.9739,-3.9746,-3.9748,-3.9746,-3.9745,-3.9754,-3.9752,-3.9751,-3.975,-3.975,-3.975,0,-3.9472,-3.9489,-3.9521,-3.9549,-3.9556,-3.9575,-3.9598,-3.9615,-3.9628,-3.9653,-3.966,-3.9679,-3.9703,-3.9716,-3.9746,-3.9752,-3.9782,-3.9783,-3.9776,-3.9777,-3.9792,-3.9791,-3.9837,-3.9845,-3.9808,-3.9809,-3.9809,0,-3.9488,-3.9507,-3.9538,-3.9553,-3.9567,-3.959,-3.9606,-3.9621,-3.9637,-3.9663,-3.9677,-3.9703,-3.9724,-3.9762,-3.9778,-3.9801,-3.9803,-3.9817,-3.9806,-3.9804,-3.9804,-3.9803,-3.9806,-3.9819,-3.982,-3.982,-3.982,0,-3.9515,-3.9524,-3.9547,-3.9574,-3.9594,-3.9615,-3.9636,-3.9647,-3.9665,-3.9683,-3.9709,-3.9725,-3.9757,-3.9782,-3.9807,-3.9819,-3.9823,-3.9824,-3.9829,-3.9827,-3.9823,-3.9826,-3.9782,-3.9822,-3.9822,-3.9822,-3.9822,-3.9822,-3.9533,-3.9551,-3.9576,-3.9602,-3.962,-3.9641,-3.9659,-3.9675,-3.9697,-3.9726,-3.9733,-3.976,-3.9782,-3.9816,-3.9829,-3.9851,-3.9848,-3.9855,-3.9857,-3.9858,-3.986,-3.9819,-3.9855,-3.9855,-3.9855,-3.9855,-3.9855,0,-3.9562,-3.9579,-3.9603,-3.9634,-3.9655,-3.9658,-3.9682,-3.9699,-3.9724,-3.9745,-3.9766,-3.9797,-3.9822,-3.984,-3.9865,-3.9879,-3.9881,-3.9885,-3.9884,-3.9888,-3.986,-3.9854,-3.9883,-3.9883,-3.9883,-3.9883,-3.9883,-3.9883,-3.9579,-3.961,-3.9622,-3.9662,-3.9678,-3.9707,-3.9721,-3.9739,-3.9757,-3.9791,-3.9813,-3.9825,-3.9845,-3.9872,-3.9895,-3.99,-3.9909,-3.9913,-3.9918,-3.9892,-3.9889,-3.9886,-3.9881,-3.9915,-3.9915,-3.9944,-3.9944,-3.9944]}]]